METEOR 2-11 DEB, 40703

Orbit data source: Space-Track

METEOR 2-11 DEB, 40703 is space debris in LEO originally from a launch on Thu, 05 Jul 1984 UTC launched from the Plesetsk Missile And Space Complex (PKMTR). Debris objects in space refer to the collection of defunct objects orbiting the Earth. Examples of debris include non-operational satellites, rocket bodies, and fragments generated from explosions, collisions, or faulty payload assembly.

Loading next visibility...
Identifier
40703, 1984-072E
Orbit
LEO
Country
Flag of CISCIS
Related business
Manufacturer
Unknown
Mission
Spacecraft
Bus & Motor
Unknown
Mass
Unknown
Launch date (UTC)
1984-07-05 (41 years ago)
Launch vehicle
Unknown
Launch site
Plesetsk Missile And Space Complex (PKMTR)
Object type
Payload
Rocket body
Debris
Shape & HBR
Unknown shape, 0.1 m
Radar Cross Section
Small (<0.1 m²)

Expand to show TLE details & history
Last TLE update: 2 months ago

TLE from 2 months ago
0 METEOR 2-11 DEB
1 40703U 84072E   25258.26235648  .00004210  00000-0  30738-2 0  9993
2 40703  82.5115 232.6603 0005664  63.1681 297.0065 13.95808830530895
Epoch: 2025-09-15T06:17Z
TLE epoch observation values (Epoch: 2025-09-15T06:17:47.599Z)
Latitude
0.00003°
Longitude
143.74244°
Altitude
909.389 km
Speed
7.398 km/s
True Right ascension
15h 30m 38s
True Declination
0° 00' 00"
Sunlit
Object was in daylight at epoch
Visualization orbit readout
Latitude
Unknown
Longitude
Unknown
Altitude
Unknown
Speed
Unknown
Apparent Right ascension
Unknown
Apparent Declination
Unknown
Sunlit
N/A
Visualization observer readout
Local Sidereal Time
15:15:14
Azimuth
Unknown
Elevation
Unknown
Doppler factor
Unknown
Orbital elements
Apogee altitude
909.607 km
Perigee altitude
901.356 km
Semi-major axis
7,283.619 km
Eccentricity
0.00057
Inclination
82.5115°
RAAN
232.6603°
Arg. of periapsis
63.1681°
True anomaly
296.94865°
Mean anomaly
297.0065°
Eccentric anomaly
296.97758°
Mean motion
3.49158 °/min
Orbital period
103.11 mins
BSTAR
0.0030738
Loading maneuver chart data...
Computing Atmospheric mass density...
Loading historical data...
Loading historical data...
Loading historical data...
Loading historical data...
Loading historical data...
Loading historical data...
Loading historical data...

Documentation

Showing up to 5 results
|